Retour au catalogue

BREEZE-M DEB

LostHEO
NORAD 48527·DEBRIS·🇷🇺 Russia

Lancé Feb 28, 2006 depuis Baikonur Cosmodrome

Loading…

Prochains Passages (prochaines 24 heures)

TLE

PériméSource: Space-Track

Époque: Jun 15, 2021, 17:24 UTC

1 48527U 06006DJ  21166.72537126  .00002986  00000-0  21540-2 0  9996
2 48527  51.8199 217.6048 4891032 225.9475  81.6884  5.65206049 12960

Suivez BREEZE-M DEB en temps réel avec AllMySat

Download on the App Store